KO6TH-15 Weather Reports


time (UTC)temp
F
wind
direction
speed
knots
gust
knots
rain 1hr
in
rain 24hr
in
rain mn
in
humidity
%
barometer
mb
20260903035446 63 0 0.0 0.0 0.00 0.54 0.54 75
20260903034445 63 0 0.0 0.0 0.00 0.54 0.54 72
20260903033415 64 0 0.0 0.0 0.00 0.54 0.54 70
20260903032345 65 0 0.0 0.0 0.00 0.54 0.54 69
20260903031345 66 0 0.0 0.0 0.00 0.54 0.54 67
20260903030345 67 0 0.0 0.0 0.00 0.54 0.54 66
20260903025315 68 0 0.0 0.0 0.00 0.54 0.54 64
20260903024315 69 0 0.9 0.0 0.00 0.54 0.54 62
20260903023245 69 0 2.6 0.0 0.00 0.54 0.54 61
20260903022215 70 0 1.7 0.0 0.00 0.54 0.54 60
20260903021145 71 0 2.6 0.0 0.00 0.54 0.54 58
20260903020115 71 0 1.7 0.0 0.00 0.54 0.54 57
20260903015115 72 0 0.9 0.0 0.00 0.54 0.54 56
20260903014115 72 0 1.7 0.0 0.00 0.54 0.54 56
20260903013045 73 0 1.7 0.0 0.00 0.54 0.54 56
20260903012015 73 0 6.1 0.0 0.00 0.54 0.54 56
20260903010945 73 0 4.3 0.0 0.00 0.54 0.54 56
20260903005945 73 0 5.2 0.0 0.00 0.54 0.54 56
20260903004945 74 0 6.1 0.0 0.00 0.54 0.54 55
20260903003915 74 0 2.6 0.0 0.00 0.54 0.54 55
20260903002915 74 0 5.2 0.0 0.00 0.54 0.54 54
20260903001845 75 0 2.6 0.0 0.00 0.54 0.54 54
20260903000845 75 0 2.6 0.0 0.00 0.54 0.54 53
20260902235815 79 0 7.0 0.0 0.00 0.54 0.54 48
20260902234745 79 0 5.2 0.0 0.00 0.54 0.54 48
20260902233715 78 0 4.3 0.0 0.00 0.54 0.54 49
20260902232715 80 0 3.5 0.0 0.00 0.54 0.54 47
20260902231645 80 0 4.3 0.0 0.00 0.54 0.54 47
20260902230645 79 0 1.7 0.0 0.00 0.54 0.54 48
20260902225645 79 0 4.3 0.0 0.00 0.54 0.54 48
20260902224615 78 0 1.7 0.0 0.00 0.54 0.54 50
20260902223545 76 0 7.0 0.0 0.00 0.54 0.54 53
20260902222515 74 0 3.5 0.0 0.00 0.54 0.54 56
20260902221515 75 0 2.6 0.0 0.00 0.54 0.54 57
20260902220515 74 0 1.7 0.0 0.00 0.54 0.54 57
20260902215515 75 0 3.5 0.0 0.00 0.54 0.54 57
20260902214445 74 0 5.2 0.0 0.00 0.54 0.54 58
20260902213445 73 0 3.5 0.0 0.00 0.54 0.54 59
20260902212445 73 0 2.6 0.0 0.00 0.54 0.54 60
20260902211445 73 0 3.5 0.0 0.00 0.54 0.54 59
20260902210445 73 0 3.5 0.0 0.00 0.54 0.54 59
20260902205415 73 0 4.3 0.0 0.00 0.54 0.54 59
20260902204345 73 0 3.5 0.0 0.00 0.54 0.54 59
20260902203315 74 0 2.6 0.0 0.00 0.54 0.54 59
20260902202315 72 0 1.7 0.0 0.00 0.54 0.54 61
20260902201315 71 0 3.5 0.0 0.00 0.54 0.54 62
20260902200315 72 0 3.5 0.0 0.00 0.54 0.54 61
20260902195245 72 0 6.1 0.0 0.00 0.54 0.54 61
20260902194245 72 0 2.6 0.0 0.00 0.54 0.54 60
20260902193245 73 0 1.7 0.0 0.00 0.54 0.54 59
20260902192245 72 0 2.6 0.0 0.00 0.54 0.54 60
20260902191245 72 0 4.3 0.0 0.00 0.54 0.54 61
20260902190245 71 0 0.0 0.0 0.00 0.54 0.54 62
20260902185215 70 0 1.7 0.0 0.00 0.54 0.54 63
20260902184145 71 0 2.6 0.0 0.00 0.54 0.54 62
20260902183115 71 0 1.7 0.0 0.00 0.54 0.54 62
20260902182045 71 0 1.7 0.0 0.00 0.54 0.54 62
20260902181045 71 0 1.7 0.0 0.00 0.54 0.54 61
20260902180015 71 0 3.5 0.0 0.00 0.54 0.54 61
20260902174945 70 0 0.9 0.0 0.00 0.54 0.54 63
20260902173945 70 0 4.3 0.0 0.00 0.54 0.54 64
20260902172915 69 0 3.5 0.0 0.00 0.54 0.54 66
20260902171915 68 0 5.2 0.0 0.00 0.54 0.54 66
20260902170845 68 0 1.7 0.0 0.00 0.54 0.54 66
20260902165815 66 0 3.5 0.0 0.00 0.54 0.54 66
20260902164815 66 0 3.5 0.0 0.00 0.54 0.54 66
20260902163815 66 0 2.6 0.0 0.00 0.54 0.54 67
20260902162745 65 0 3.5 0.0 0.00 0.54 0.54 68
20260902161715 65 0 0.9 0.0 0.00 0.54 0.54 68
20260902160645 64 0 1.7 0.0 0.00 0.54 0.54 68
20260902155645 64 0 2.6 0.0 0.00 0.54 0.54 68
20260902154615 62 0 3.5 0.0 0.00 0.54 0.54 72
20260902153545 59 0 1.7 0.0 0.00 0.54 0.54 76
20260902152515 58 0 1.7 0.0 0.00 0.54 0.54 78
20260902151445 58 0 0.9 0.0 0.00 0.54 0.54 79
20260902150445 57 0 0.9 0.0 0.00 0.54 0.54 80
20260902145415 57 0 0.9 0.0 0.00 0.54 0.54 81
20260902144415 57 0 0.9 0.0 0.00 0.54 0.54 82
20260902143415 56 0 0.9 0.0 0.00 0.54 0.54 83
20260902142345 56 0 1.7 0.0 0.00 0.54 0.54 84
20260902141345 55 0 1.7 0.0 0.00 0.54 0.54 86
20260902140345 55 0 0.0 0.0 0.00 0.54 0.54 87
20260902135345 54 0 0.0 0.0 0.00 0.54 0.54 88
20260902134345 54 0 1.7 0.0 0.54 0.54 0.54 88
20260902133315 54 0 0.0 0.0 0.54 0.54 0.54 88
20260902132315 54 0 0.0 0.0 0.54 0.54 0.54 89
20260902131315 54 0 0.0 0.0 0.54 0.54 0.54 88
20260902130245 54 0 0.9 0.0 0.54 0.54 0.54 87
20260902125245 55 0 1.7 0.0 0.54 0.54 0.54 87
20260902124215 55 0 0.9 0.0 0.00 0.00 0.00 87
20260902123145 55 0 2.6 0.0 0.00 0.00 0.00 87
20260902122145 54 0 1.7 0.0 0.00 0.00 0.00 87
20260902121115 55 0 0.9 0.0 0.00 0.00 0.00 87
20260902120045 55 0 0.9 0.0 0.00 0.00 0.00 88
20260902115015 54 0 1.7 0.0 0.00 0.00 0.00 88
20260902113945 54 0 1.7 0.0 0.00 0.00 0.00 88
20260902112945 54 0 0.9 0.0 0.00 0.00 0.00 88
20260902111945 54 0 1.7 0.0 0.00 0.00 0.00 88
20260902110945 54 0 0.9 0.0 0.00 0.00 0.00 88
20260902105915 54 0 0.9 0.0 0.00 0.00 0.00 87
20260902104915 54 0 1.7 0.0 0.00 0.00 0.00 87
20260902103845 55 0 1.7 0.0 0.00 0.00 0.00 87
20260902102845 55 0 0.0 0.0 0.00 0.00 0.00 87
20260902101815 55 0 0.9 0.0 0.00 0.00 0.00 86
20260902100815 55 0 0.9 0.0 0.00 0.00 0.00 86
20260902095745 55 0 0.0 0.0 0.00 0.00 0.00 86
20260902094745 55 0 0.9 0.0 0.00 0.00 0.00 86
20260902093715 56 0 1.7 0.0 0.00 0.00 0.00 86
20260902092645 56 0 2.6 0.0 0.00 0.00 0.00 86
20260902091615 56 0 0.9 0.0 0.00 0.00 0.00 86
20260902090545 56 0 1.7 0.0 0.00 0.00 0.00 85
20260902085545 56 0 1.7 0.0 0.00 0.00 0.00 84
20260902084545 56 0 0.9 0.0 0.00 0.00 0.00 84
20260902083515 56 0 2.6 0.0 0.00 0.00 0.00 84
20260902082515 56 0 3.5 0.0 0.00 0.00 0.00 83
20260902081515 56 0 1.7 0.0 0.00 0.00 0.00 83
20260902080515 56 0 0.9 0.0 0.00 0.00 0.00 82
20260902075515 56 0 1.7 0.0 0.00 0.00 0.00 82
20260902074515 57 0 1.7 0.0 0.00 0.00 0.00 82
20260902073515 57 0 1.7 0.0 0.00 0.00 0.00 81
20260902072515 57 0 1.7 0.0 0.00 0.00 0.00 81
20260902071515 57 0 1.7 0.0 0.00 0.00 0.00 80
20260902070445 57 0 1.7 0.0 0.00 0.00 0.00 80
20260902065445 57 0 1.7 0.0 0.00 0.00 0.00 79
20260902064415 58 0 1.7 0.0 0.00 0.00 0.00 79
20260902063415 58 0 2.6 0.0 0.00 0.00 0.00 78
20260902062345 58 0 1.7 0.0 0.00 0.00 0.00 78
20260902061345 58 0 2.6 0.0 0.00 0.00 0.00 78
20260902060315 58 0 2.6 0.0 0.00 0.00 0.00 78
20260902055315 58 0 2.6 0.0 0.00 0.00 0.00 77
20260902054245 59 0 1.7 0.0 0.00 0.00 0.00 77
20260902053245 59 0 1.7 0.0 0.00 0.00 0.00 77
20260902052215 59 0 1.7 0.0 0.00 0.00 0.00 76
20260902051215 59 0 0.0 0.0 0.00 0.00 0.00 75
20260902050145 59 0 0.9 0.0 0.00 0.00 0.00 73
20260902045145 60 0 0.9 0.0 0.00 0.00 0.00 72
20260902044115 60 0 0.9 0.0 0.00 0.00 0.00 71
20260902043045 60 0 0.9 0.0 0.00 0.00 0.00 70
20260902042015 61 0 0.9 0.0 0.00 0.00 0.00 68
20260902041015 61 0 0.0 0.0 0.00 0.00 0.00 67